Home > Weather > Kemi > Past weeks

Flag for Finland Past Weather in Kemi, Finland — Yesterday and Last 2 Weeks

Now
64 °F

Low clouds.


Feels Like: 64 °F
Forecast: 62 / 71 °F
Wind: 8 mph from South

Location: Kemi Airport

Current Time: Jul 26, 2016 at 1:25:28 PM

Latest Report: Jul 26, 2016 at 12:20 PM


Visibility: N/A

Pressure: 29.98 "Hg

Humidity: 94%

Dew Point: 63 °F

Location of KemiLocation

Past Weather in Kemi — Graph

°F

Kemi Temperature Yesterday

Maximum temperature yesterday: 68 °F (at 7:20 AM)
Minimum temperature yesterday: 57 °F (at 2:20 AM)
Average temperature yesterday: 64 °F

High & Low Weather Summary for the Past Weeks

 TemperatureHumidityPressure
High79 °F (Jul 22, 4:50 PM)100% (Jul 12, 12:50 AM)30.18 "Hg (Jul 12, 12:50 AM)
Low43 °F (Jul 21, 4:20 AM)28% (Jul 22, 5:50 PM)29.42 "Hg (Jul 12, 4:50 PM)
Average63 °F74%29.85 "Hg
* Reported Jul 11 12:20 PM — Jul 26 12:20 PM, Kemi, Weather by CustomWeather, © 2016

Note: Actual official high and low records may vary slightly from our data, if they occured in-between our weather recording intervals... More about our weather records

Advertising

Kemi Weather History for the Previous 24 Hours

Scroll right to see more
 ConditionsComfort  
Time TempWeatherWind HumidityBarometerVisibility
12:20 PM
Tue, Jul 26
64 °FLow clouds.8 mph94%29.98 "HgN/A
11:50 AM64 °FLow clouds.7 mph88%29.98 "HgN/A
11:20 AM64 °FLow clouds.7 mph88%29.98 "HgN/A
10:50 AM64 °FLow clouds.7 mph94%29.98 "HgN/A
10:20 AM64 °FLow clouds.7 mph94%29.98 "HgN/A
9:50 AM64 °FLow clouds.7 mph94%29.98 "HgN/A
9:20 AM64 °FLow clouds.8 mph94%29.98 "HgN/A
8:50 AM63 °FLow clouds.7 mph100%29.98 "HgN/A
8:20 AM63 °FLow clouds.8 mph100%29.98 "HgN/A
7:50 AM63 °FLow clouds.9 mph94%29.98 "HgN/A
7:20 AM63 °FLow clouds.7 mph94%29.98 "HgN/A
6:50 AM63 °FLow clouds.7 mph100%29.98 "Hg5 mi
6:20 AM61 °FLow clouds.1 mph100%29.98 "Hg5 mi
5:50 AM59 °FPartly sunny.2 mph100%29.98 "Hg5 mi
5:20 AM57 °FFog.2 mph100%29.98 "Hg3 mi
4:50 AM57 °FFog.2 mph100%29.98 "Hg1 mi
4:20 AM57 °FClear.1 mph100%29.98 "Hg1 mi
3:50 AM59 °FFog.2 mph94%29.98 "Hg0 mi
3:20 AM59 °FFog.2 mph100%29.98 "Hg0 mi
2:50 AM59 °FFog.2 mph100%29.98 "Hg1 mi
2:20 AM59 °FFog.2 mph100%29.98 "Hg0 mi
1:50 AM59 °FFog.2 mph100%29.98 "Hg0 mi
1:20 AM59 °FFog.2 mph100%29.98 "Hg1 mi
12:50 AM61 °FFog.2 mph100%29.98 "Hg1 mi
12:20 AM61 °FLow clouds.3 mph100%29.98 "Hg4 mi
11:50 PM
Mon, Jul 25
63 °FLow clouds.3 mph94%29.98 "HgN/A
11:20 PM61 °FPartly sunny.3 mph100%29.98 "HgN/A
10:50 PM63 °FPartly sunny.3 mph94%29.98 "HgN/A
10:20 PM63 °FPartly sunny.3 mph94%29.98 "HgN/A
9:50 PM63 °FPartly sunny.2 mph94%29.98 "HgN/A
9:20 PM64 °FPassing clouds.2 mph88%29.98 "HgN/A
8:50 PM64 °FPartly sunny.2 mph88%29.98 "HgN/A
8:20 PM64 °FPartly sunny.6 mph88%29.98 "HgN/A
7:50 PM64 °FPartly sunny.6 mph88%29.98 "HgN/A
7:20 PM64 °FPartly sunny.6 mph88%29.98 "HgN/A
6:50 PM66 °FOvercast.6 mph88%30.01 "HgN/A
6:20 PM66 °FOvercast.6 mph83%29.98 "HgN/A
5:50 PM66 °FOvercast.9 mph83%29.98 "HgN/A
5:20 PM66 °FOvercast.6 mph83%30.01 "HgN/A
4:50 PM66 °FOvercast.7 mph83%30.01 "HgN/A
4:20 PM66 °FOvercast.7 mph83%30.01 "HgN/A
3:50 PM66 °FOvercast.9 mph83%30.01 "HgN/A
3:20 PM66 °FOvercast.7 mph83%30.01 "HgN/A
2:50 PM66 °FOvercast.8 mph83%30.01 "HgN/A
2:20 PM66 °FPartly sunny.9 mph83%30.01 "HgN/A
1:50 PM66 °FOvercast.9 mph83%30.04 "HgN/A
1:20 PM66 °FOvercast.8 mph83%30.04 "HgN/A
Weather by CustomWeather, © 2016

See weather overviewHow to use our weather pages